Wind_Speed
70 70 68 69 68 67 65 64 64 63 64 59 58 61 58 51 48 42 46 47 47 47 44 45 46 44 42 39 36 36 35 32 40 33 34 34 34 32 32 31 30 30 29 29
73 73 67 69 68 67 65 66 65 66 64 63 59 60 59 49 43 36 37 44 51 51 46 47 49 51 47 42 41 40 38 35 36 38 34 35 35 34 35 35 36 35 33 32
71 66 64 68 69 69 68 69 67 66 61 62 64 63 59 54 49 42 45 50 49 55 56 53 53 55 52 49 45 42 42 41 38 38 39 35 33 33 34 35 37 36 34 34
65 65 64 64 66 66 73 70 66 61 62 66 63 68 60 57 56 56 46 44 46 51 51 57 58 57 55 53 50 47 44 45 41 39 39 38 36 31 31 37 36 36 37 36
64 61 61 60 58 55 56 56 62 63 64 65 65 65 61 58 57 47 40 39 38 42 46 50 58 61 56 58 57 52 48 48 47 42 41 39 38 35 35 36 36 35 38 39
57 60 61 60 57 55 53 54 54 57 64 70 70 69 64 56 52 51 49 37 32 38 33 36 48 58 64 60 58 58 53 49 50 48 45 43 42 40 38 37 38 38 39 40
57 61 56 57 57 56 55 56 56 53 52 60 59 65 61 54 51 52 54 52 48 44 42 42 40 46 53 58 53 56 56 54 53 53 50 49 47 45 44 41 41 40 38 39
54 58 61 62 55 52 55 57 61 60 62 55 55 53 45 49 55 56 58 52 43 43 44 45 42 43 40 47 47 50 55 56 57 57 54 53 52 49 48 47 44 43 43 40
53 48 34 34 40 40 48 54 56 58 56 59 60 57 56 42 44 43 42 45 44 43 44 40 43 39 38 41 43 45 45 50 54 56 58 57 56 53 51 51 50 47 46 44
50 54 52 49 34 35 30 31 35 42 50 43 45 42 40 41 52 58 56 56 55 54 51 50 48 44 37 34 35 37 40 45 47 49 53 56 57 55 54 53 52 52 50 51
46 49 50 53 58 40 29 34 41 44 46 43 48 52 51 51 54 56 55 52 52 51 49 51 51 54 49 44 40 36 34 39 43 46 46 48 51 53 54 54 53 53 53 52
45 44 47 48 55 58 46 42 41 38 41 38 39 45 53 51 50 51 54 52 51 51 51 49 51 56 55 55 50 50 47 42 39 44 47 48 49 50 50 52 53 52 52 53
45 46 46 47 45 38 45 44 42 33 39 38 44 51 53 50 51 55 50 49 50 47 46 45 47 50 49 47 47 50 52 50 47 46 45 47 49 49 49 49 51 52 51 50
48 49 47 44 44 43 53 56 51 51 42 34 31 40 44 44 45 53 56 58 48 44 45 46 48 49 50 50 50 54 55 57 55 53 52 51 52 51 54 54 55 55 54 53
47 49 50 49 46 54 48 44 56 56 53 50 38 40 51 47 42 38 46 50 45 46 49 49 49 51 55 55 55 56 57 56 57 57 58 57 56 57 57 56 57 62 55 54
42 42 41 43 46 47 50 48 45 53 63 47 34 39 35 41 42 43 36 46 44 42 38 41 50 53 52 55 54 55 56 57 55 56 57 59 60 60 58 60 59 58 61 60
36 38 41 45 47 47 50 49 54 54 48 51 56 44 43 38 35 34 34 35 35 40 46 49 48 47 52 56 59 59 57 57 57 56 57 58 59 60 59 59 61 60 61 63
38 38 39 42 45 47 45 49 50 46 39 40 46 52 49 57 51 51 49 49 48 47 50 50 52 56 56 56 58 58 59 59 59 60 59 60 60 60 60 60 62 62 63 63
43 40 39 39 41 41 42 46 46 45 44 43 48 49 49 51 55 56 57 59 59 60 63 65 65 65 65 65 66 67 68 69 70 69 68 68 67 66 64 64 63 63 63 64
39 37 37 38 39 40 40 40 42 42 41 41 39 41 43 44 47 48 49 52 53 55 57 61 64 68 70 71 72 74 76 78 78 79 78 78 77 75 74 72 70 68 67 67
36 36 36 36 37 39 40 40 40 40 38 37 38 39 42 45 46 48 48 50 52 54 57 59 62 66 69 71 73 74 75 77 81 83 83 83 86 85 80 79 78 78 74 74
37 36 35 35 37 37 36 37 37 35 36 38 38 40 40 40 42 44 44 45 45 47 49 51 52 54 58 61 65 68 71 73 73 76 79 80 83 86 86 83 83 84 83 84
38 36 36 37 37 36 35 37 37 37 36 36 35 35 36 36 38 40 43 45 48 51 54 57 60 63 66 68 71 73 76 77 77 77 78 81 83 85 87 86 85 86 87 89
35 36 37 36 35 32 32 31 32 32 31 31 33 35 38 42 46 47 50 51 54 57 59 61 65 69 73 77 81 84 86 88 89 88 87 85 83 84 88 88 88 89 89 90
33 34 34 34 31 30 31 31 32 33 35 37 39 42 46 50 52 54 56 58 61 64 68 71 75 79 83 87 90 92 92 94 95 96 96 95 91 89 88 89 90 90 89 90
33 33 33 31 32 33 34 36 37 39 42 44 46 49 51 53 55 58 61 64 68 72 75 77 82 87 92 92 94 94 94 93 93 94 90 87 92 92 89 90 89 87 88 89
Wind_Direction
246 246 253 254 256 258 260 261 262 264 265 264 265 265 267 269 272 270 263 262 260 260 260 258 257 255 256 256 257 260 258 266 269 261 260 259 261 260 260 260 265 268 270 271
245 250 251 250 251 254 256 258 261 260 261 262 262 263 267 266 265 258 262 261 259 256 256 257 255 257 254 252 253 254 257 257 263 268 267 265 264 263 264 265 264 265 266 269
247 251 250 250 250 251 254 257 258 259 261 263 263 261 263 263 259 252 272 274 267 263 259 256 255 252 253 248 245 249 253 256 256 261 265 266 270 267 264 263 263 264 265 264
245 246 246 247 248 251 251 254 255 258 259 260 259 261 255 256 254 261 273 260 262 266 265 261 259 253 251 252 245 243 246 254 257 258 261 265 266 272 270 264 261 265 268 263
243 243 244 244 253 250 253 252 253 253 254 254 253 255 257 253 257 262 265 271 269 264 267 265 260 254 255 261 257 248 244 247 253 254 257 259 262 267 268 270 267 264 263 260
237 240 241 245 244 246 248 251 252 252 252 252 255 253 256 255 258 252 252 258 273 268 274 287 268 259 258 259 254 250 248 247 251 251 252 253 258 263 264 264 266 267 267 263
234 240 241 241 242 244 246 247 251 254 253 260 260 259 263 260 260 250 250 258 266 262 273 283 282 267 258 257 258 252 251 250 251 253 252 251 251 255 260 260 263 263 266 265
235 239 243 242 242 248 252 251 249 250 255 253 262 262 269 259 255 253 256 265 258 260 270 279 279 274 268 264 265 262 256 256 258 257 256 256 257 256 257 259 259 260 261 262
231 226 231 236 244 245 247 246 251 252 254 260 265 270 265 251 251 249 249 256 267 271 269 267 274 274 269 263 261 259 254 252 255 259 261 261 259 257 257 258 261 260 258 259
235 238 239 221 233 222 236 244 246 241 240 244 248 251 260 259 249 251 260 266 269 267 266 264 263 265 264 267 263 261 262 258 254 255 259 262 263 262 261 259 259 260 258 256
235 235 235 230 234 232 249 259 265 247 245 254 265 264 260 259 254 255 260 262 261 261 261 262 260 261 262 264 271 262 263 264 262 259 258 260 263 264 263 262 260 258 258 257
238 239 239 238 239 243 247 243 247 239 251 256 262 261 259 260 255 253 256 257 255 254 254 255 259 257 261 263 266 270 266 264 266 267 266 260 259 259 261 264 264 262 260 261
235 237 239 240 237 229 235 230 243 255 250 258 252 271 264 260 263 262 257 261 258 255 256 256 255 263 267 263 265 266 270 268 267 264 265 272 273 260 257 257 261 264 264 264
234 237 240 244 245 242 245 244 247 251 256 260 260 264 259 258 210 244 253 256 245 248 248 248 248 250 253 253 255 257 260 265 267 266 266 264 263 270 267 258 259 258 260 265
236 235 237 244 247 242 254 250 245 250 254 255 266 237 240 229 224 209 224 227 236 254 250 242 246 249 249 248 251 256 259 260 262 266 268 267 265 266 266 266 267 263 261 268
243 243 242 244 246 249 249 251 250 250 251 250 239 237 227 212 210 221 226 234 229 235 238 241 245 245 248 251 254 256 258 261 263 265 267 271 271 269 266 265 265 267 269 269
248 239 241 243 246 248 248 249 252 257 260 253 247 242 248 256 264 254 248 252 255 247 245 243 249 254 251 253 256 258 261 262 266 270 271 271 270 272 274 271 271 271 270 266
231 234 234 240 242 245 252 251 252 256 251 257 263 266 271 270 271 267 271 271 267 258 257 261 262 259 262 264 265 267 271 273 273 271 271 273 273 272 273 273 273 274 275 274
230 234 239 242 248 250 250 252 256 258 261 259 263 267 269 269 271 274 273 274 273 271 271 273 277 280 281 278 275 273 275 278 278 276 275 275 275 275 275 273 273 274 273 275
228 229 236 244 248 252 252 253 256 259 262 267 262 261 263 264 265 267 268 271 271 271 274 277 278 279 280 280 280 278 277 275 275 276 277 276 275 274 272 273 273 273 273 274
232 238 244 248 250 248 250 252 253 256 263 263 264 263 265 269 271 273 273 273 274 275 275 276 276 275 276 277 278 278 277 276 275 274 272 271 272 273 273 271 271 272 271 271
231 234 240 249 253 252 254 257 259 260 259 261 264 268 268 268 270 273 276 277 278 279 280 280 280 282 283 283 283 283 283 281 281 280 277 274 271 270 269 267 267 269 270 271
232 241 250 254 255 255 255 258 260 261 262 262 263 265 268 271 273 274 275 277 278 279 280 281 281 281 282 282 283 283 282 281 280 278 276 276 275 273 270 269 266 264 264 265
237 243 248 251 253 254 256 261 261 258 256 258 262 266 273 279 279 280 281 281 281 282 282 281 282 283 284 284 283 283 283 281 281 280 278 276 273 272 272 271 270 267 263 261
246 249 247 249 252 257 260 262 260 260 261 264 269 272 275 278 278 278 280 282 283 284 283 282 281 281 281 281 282 283 285 284 283 279 278 276 274 272 270 268 268 268 268 266
241 245 249 253 257 260 264 265 265 265 266 269 272 274 276 279 279 279 280 281 282 284 285 285 286 288 290 288 290 289 285 282 280 278 278 277 274 273 271 268 266 267 266 266
Height
5744 5748 5761 5762 5766 5769 5773 5778 5782 5785 5786 5789 5792 5795 5800 5806 5809 5812 5814 5815 5815 5816 5818 5820 5822 5824 5825 5826 5825 5826 5827 5826 5826 5827 5830 5829 5829 5828 5828 5827 5826 5825 5823 5823
5729 5739 5752 5750 5755 5758 5762 5765 5771 5772 5774 5775 5780 5785 5791 5797 5802 5803 5805 5804 5804 5805 5807 5809 5810 5811 5816 5819 5817 5816 5817 5818 5818 5819 5820 5822 5823 5822 5820 5819 5818 5817 5818 5817
5716 5738 5734 5739 5744 5748 5752 5755 5760 5759 5762 5763 5764 5772 5782 5789 5792 5793 5795 5794 5794 5795 5796 5797 5798 5799 5802 5807 5810 5808 5807 5809 5810 5810 5811 5812 5814 5814 5813 5812 5810 5809 5810 5808
5705 5722 5721 5723 5730 5738 5739 5749 5748 5751 5751 5752 5753 5752 5771 5777 5779 5781 5782 5782 5785 5784 5784 5786 5787 5789 5789 5793 5798 5799 5798 5798 5800 5801 5802 5803 5803 5806 5804 5802 5802 5803 5801 5801
5700 5707 5711 5713 5730 5726 5734 5735 5738 5739 5738 5735 5740 5740 5760 5767 5770 5772 5768 5773 5772 5772 5773 5774 5774 5778 5778 5782 5786 5789 5789 5789 5790 5791 5791 5792 5793 5796 5795 5794 5794 5794 5793 5792
5688 5693 5699 5710 5714 5719 5723 5724 5724 5725 5724 5717 5732 5730 5742 5758 5762 5759 5759 5761 5762 5762 5761 5762 5761 5762 5766 5768 5771 5774 5776 5779 5779 5780 5781 5782 5784 5785 5785 5784 5784 5784 5783 5784
5681 5682 5691 5699 5703 5708 5710 5713 5712 5712 5710 5711 5725 5718 5733 5750 5749 5747 5747 5748 5751 5753 5752 5752 5753 5752 5753 5756 5759 5761 5764 5765 5767 5768 5771 5771 5772 5772 5773 5774 5773 5773 5773 5773
5669 5674 5680 5690 5693 5699 5701 5703 5702 5701 5703 5707 5710 5710 5727 5734 5734 5734 5735 5736 5739 5741 5741 5741 5744 5745 5744 5745 5747 5748 5750 5753 5755 5756 5758 5760 5761 5762 5762 5762 5763 5762 5762 5763
5660 5663 5672 5680 5686 5689 5688 5687 5697 5696 5698 5697 5698 5708 5714 5721 5721 5723 5723 5724 5725 5727 5729 5730 5733 5735 5735 5735 5734 5735 5736 5737 5740 5742 5744 5746 5748 5749 5749 5750 5751 5752 5752 5751
5651 5657 5664 5672 5675 5678 5681 5685 5687 5687 5687 5685 5690 5697 5706 5712 5715 5711 5712 5713 5713 5715 5717 5719 5722 5724 5723 5725 5724 5724 5725 5725 5726 5729 5732 5733 5735 5735 5736 5737 5739 5740 5740 5739
5646 5651 5657 5662 5664 5670 5672 5674 5676 5678 5680 5682 5688 5689 5694 5698 5701 5699 5699 5702 5703 5703 5704 5705 5707 5711 5711 5712 5713 5713 5713 5714 5714 5715 5717 5718 5720 5722 5723 5725 5725 5726 5726 5726
5641 5643 5646 5652 5657 5661 5663 5671 5673 5662 5670 5673 5674 5678 5679 5682 5685 5688 5688 5688 5690 5690 5690 5692 5696 5696 5698 5700 5700 5701 5702 5703 5703 5704 5705 5705 5707 5707 5709 5710 5711 5712 5712 5712
5632 5632 5636 5640 5648 5652 5653 5661 5664 5664 5665 5662 5665 5669 5669 5671 5674 5675 5677 5677 5676 5675 5679 5684 5686 5687 5688 5688 5688 5689 5691 5690 5692 5692 5692 5692 5693 5694 5695 5696 5696 5696 5697 5698
5620 5624 5630 5634 5641 5644 5647 5651 5653 5654 5656 5659 5658 5660 5661 5663 5660 5660 5660 5662 5662 5665 5669 5672 5675 5675 5675 5675 5676 5677 5677 5677 5677 5677 5677 5678 5679 5679 5679 5679 5680 5680 5680 5682
5612 5618 5622 5626 5629 5633 5636 5637 5640 5643 5647 5652 5655 5651 5650 5653 5650 5646 5646 5649 5652 5655 5658 5661 5664 5666 5665 5665 5665 5665 5665 5665 5665 5664 5664 5664 5664 5665 5665 5665 5665 5664 5663 5665
5604 5609 5612 5615 5618 5621 5624 5631 5635 5636 5637 5643 5642 5644 5638 5636 5638 5639 5633 5637 5639 5643 5646 5649 5652 5652 5653 5653 5654 5654 5654 5653 5652 5652 5651 5649 5649 5649 5648 5649 5649 5648 5647 5646
5597 5600 5603 5604 5608 5610 5615 5623 5623 5625 5626 5630 5629 5630 5631 5632 5632 5631 5628 5630 5632 5634 5636 5639 5639 5641 5642 5642 5642 5642 5642 5642 5640 5640 5639 5637 5635 5634 5632 5631 5631 5630 5632 5633
5587 5591 5593 5596 5599 5601 5610 5611 5612 5613 5615 5619 5620 5621 5622 5622 5623 5623 5623 5624 5626 5627 5628 5629 5630 5629 5628 5628 5627 5627 5625 5624 5624 5623 5623 5622 5621 5619 5617 5616 5615 5613 5613 5614
5581 5583 5585 5587 5591 5598 5600 5601 5602 5602 5605 5609 5611 5608 5611 5611 5610 5610 5613 5615 5614 5613 5614 5615 5613 5612 5610 5610 5610 5610 5609 5607 5605 5605 5605 5604 5604 5603 5601 5600 5599 5597 5596 5596
5572 5575 5578 5581 5583 5588 5590 5590 5590 5591 5595 5598 5597 5597 5598 5599 5600 5601 5600 5599 5598 5599 5599 5599 5597 5594 5591 5589 5588 5588 5588 5589 5588 5586 5584 5584 5583 5582 5583 5582 5580 5579 5576 5578
5565 5568 5571 5573 5574 5578 5579 5580 5581 5585 5593 5585 5586 5587 5587 5586 5586 5585 5585 5585 5585 5584 5582 5580 5578 5576 5573 5570 5568 5566 5564 5563 5562 5563 5565 5564 5561 5559 5559 5560 5559 5559 5557 5558
5557 5560 5562 5564 5566 5569 5571 5572 5575 5576 5575 5575 5577 5576 5576 5575 5575 5574 5574 5572 5571 5568 5566 5565 5562 5560 5557 5553 5551 5548 5545 5542 5539 5537 5536 5535 5534 5533 5533 5534 5534 5534 5533 5534
5548 5551 5555 5558 5559 5560 5561 5562 5563 5564 5565 5566 5566 5566 5566 5565 5564 5563 5562 5560 5557 5554 5552 5548 5546 5543 5539 5534 5529 5526 5522 5519 5518 5515 5512 5510 5508 5506 5505 5505 5507 5507 5507 5508
5539 5542 5545 5548 5550 5551 5552 5552 5553 5554 5554 5556 5557 5557 5556 5553 5551 5549 5546 5544 5542 5539 5536 5533 5529 5525 5520 5514 5508 5502 5499 5494 5491 5489 5487 5483 5480 5479 5477 5476 5477 5479 5481 5479
5533 5535 5538 5539 5541 5542 5542 5543 5543 5544 5544 5545 5545 5544 5543 5541 5539 5536 5533 5529 5526 5523 5519 5514 5510 5505 5499 5492 5485 5480 5474 5468 5464 5460 5456 5453 5452 5451 5450 5448 5447 5448 5451 5448
5525 5528 5530 5531 5531 5532 5532 5533 5533 5533 5533 5533 5532 5531 5529 5527 5525 5521 5518 5514 5510 5505 5500 5494 5487 5480 5471 5463 5457 5451 5441 5434 5429 5426 5423 5420 5418 5417 5417 5416 5419 5418 5419 5419